This is the latest recevied weather packets stored in our database for station/object VK6DUG. If no packets are shown the sender has not sent any weather packets the latest 10 day(s).
| Time | Temp. | Humidity | Pressure | Rain* | Wind** | Luminosity | Snow |
|---|---|---|---|---|---|---|---|
| 1777975217 | 17.78° C | 71% | 1028.6 hPa | 0 mm | - | 0 W/m² | - |
| 1777974630 | 17.78° C | 71% | 1028.5 hPa | 0 mm | - | 1 W/m² | - |
| 1777974024 | 18.33° C | 71% | 1028.5 hPa | 0 mm | - | 3 W/m² | - |
| 1777973417 | 18.33° C | 71% | 1028.5 hPa | 0 mm | - | 9 W/m² | - |
| 1777972832 | 18.89° C | 70% | 1028.4 hPa | 0 mm | - | 19 W/m² | - |
| 1777972228 | 18.89° C | 69% | 1028.4 hPa | 0 mm | - | 30 W/m² | - |
| 1777971624 | 19.44° C | 68% | 1028.4 hPa | 0 mm | - | 40 W/m² | - |
| 1777971019 | 19.44° C | 68% | 1028.3 hPa | 0 mm | - | 47 W/m² | - |
| 1777970436 | 19.44° C | 67% | 1028.2 hPa | 0 mm | - | 64 W/m² | - |
| 1777969832 | 20° C | 66% | 1028.2 hPa | 0 mm | - | 87 W/m² | - |
| 1777969229 | 19.44° C | 66% | 1028.2 hPa | 0 mm | - | 116 W/m² | - |
| 1777968626 | 20° C | 66% | 1028.2 hPa | 0 mm | - | 137 W/m² | - |
| 1777968021 | 20° C | 65% | 1028.2 hPa | 0 mm | - | 172 W/m² | - |
| 1777967418 | 20° C | 65% | 1028.1 hPa | 0 mm | - | 173 W/m² | - |
| 1777966816 | 20° C | 64% | 1028.2 hPa | 0 mm | - | 201 W/m² | - |
| 1777966233 | 20.56° C | 62% | 1028.2 hPa | 0 mm | - | 249 W/m² | - |
| 1777965631 | 20.56° C | 62% | 1028.2 hPa | 0 mm | - | 268 W/m² | - |
| 1777965028 | 20.56° C | 61% | 1028.2 hPa | 0 mm | - | 314 W/m² | - |
| 1777964426 | 21.11° C | 60% | 1028.2 hPa | 0 mm | - | 336 W/m² | - |
| 1777963823 | 21.11° C | 59% | 1028.1 hPa | 0 mm | - | 366 W/m² | - |
| 1777963220 | 21.11° C | 59% | 1028.2 hPa | 0 mm | - | 393 W/m² | - |
| 1777962618 | 21.11° C | 59% | 1028.1 hPa | 0 mm | - | 422 W/m² | - |
| 1777962035 | 21.11° C | 59% | 1028 hPa | 0 mm | - | 449 W/m² | - |
| 1777961432 | 21.11° C | 59% | 1028.1 hPa | 0 mm | - | 455 W/m² | - |
| 1777960829 | 21.11° C | 59% | 1028.1 hPa | 0 mm | - | 485 W/m² | - |
* Rain latest hour (hover to see other rain measurements)
** Current wind speed in m/s (hover to see current wind gust speed)